Change the Weather History Date:

Saturday, December 28, 2013

  Actual Average Record
Temperature  
Mean Temperature 80 °F 79 °F  
Max Temperature 85 °F 85 °F 90 °F (1993)
Min Temperature 75 °F 73 °F 65 °F (1972)
Degree Days  
Heating Degree Days 0 0  
Month to date heating degree days 0 0  
Since 1 July heating degree days 0 0  
Cooling Degree Days 15 14  
Month to date cooling degree days 407 408  
Year to date cooling degree days 5950 6002  
Growing Degree Days 30 (Base 50)    
Moisture  
Dew Point 73 °F    
Average Humidity 80    
Maximum Humidity 94    
Minimum Humidity 65    
Precipitation  
Precipitation 0.01 in 0.09 in 1.42 in (1957)
Month to date precipitation 7.25 2.71  
Year to date precipitation 55.13 39.09  
Sea Level Pressure  
Sea Level Pressure 30.05 in    
Wind  
Wind Speed 8 mph (East)    
Max Wind Speed 17 mph    
Max Gust Speed 22 mph    
Visibility 10 miles    
Events Rain    
T = Trace of Precipitation, MM = Missing Value Source: NWS Daily Summary

Daily Weather History Graph

Daily Weather History Graph

Search for Another Location

Airport or City:

Trip Planner

Search our weather history database for the weather conditions in past years. The results will help you decide how hot, cold, wet, or windy it might be!

Date:

Astronomy

Dec. 28, 2013 Rise Set
Actual Time 6:50 AM AST 5:52 PM AST
Civil Twilight 6:26 AM AST 6:16 PM AST
Nautical Twilight 5:59 AM AST 6:43 PM AST
Astronomical Twilight 5:32 AM AST 7:10 PM AST
Moon 2:41 AM AST (12/28) 2:24 PM AST (12/28)
Length of Visible Light 11h 49m
Length of Day
11h 02m
Waning Crescent, 19% of the Moon is Illuminated
Dec 28
Waning Crescent
Jan 1
New
Jan 7
First Quarter
Jan 16
Full
Jan 24
Last Quarter

Hourly Weather History & Observations

Time (AST) Temp. Heat Index Dew Point Humidity Pressure Visibility Wind Dir Wind Speed Gust Speed Precip Events Conditions
12:53 AM 77.0 °F - 73.0 °F 88% 30.08 in 10.0 mi East 6.9 mph - N/A   Mostly Cloudy
1:53 AM 77.0 °F - 73.0 °F 88% 30.06 in 10.0 mi Calm Calm - N/A   Partly Cloudy
2:53 AM 75.9 °F - 73.0 °F 91% 30.04 in 10.0 mi East 4.6 mph - N/A   Clear
3:53 AM 75.9 °F - 72.0 °F 87% 30.04 in 10.0 mi East 4.6 mph - N/A   Clear
4:53 AM 77.0 °F - 72.0 °F 84% 30.03 in 10.0 mi East 9.2 mph - N/A   Clear
5:53 AM 77.0 °F - 72.0 °F 84% 30.04 in 10.0 mi East 5.8 mph - N/A   Partly Cloudy
6:53 AM 77.0 °F - 73.0 °F 88% 30.06 in 10.0 mi East 8.1 mph - 0.00 in   Scattered Clouds
7:53 AM 79.0 °F - 73.9 °F 84% 30.08 in 10.0 mi East 6.9 mph - 0.00 in   Mostly Cloudy
8:53 AM 81.0 °F 86.2 °F 73.9 °F 79% 30.10 in 10.0 mi East 8.1 mph - N/A   Partly Cloudy
9:53 AM 82.9 °F 88.8 °F 73.0 °F 72% 30.10 in 10.0 mi ESE 12.7 mph 19.6 mph N/A   Partly Cloudy
10:53 AM 84.0 °F 89.6 °F 72.0 °F 67% 30.10 in 10.0 mi East 15.0 mph 21.9 mph N/A   Scattered Clouds
11:53 AM 84.9 °F 91.4 °F 73.0 °F 67% 30.08 in 10.0 mi ESE 9.2 mph - N/A   Mostly Cloudy
12:53 PM 84.0 °F 91.2 °F 73.9 °F 72% 30.04 in 10.0 mi ESE 10.4 mph - N/A   Mostly Cloudy
1:53 PM 82.0 °F 86.7 °F 72.0 °F 71% 30.02 in 10.0 mi East 16.1 mph 20.7 mph N/A   Scattered Clouds
2:53 PM 82.9 °F 88.0 °F 72.0 °F 69% 30.01 in 10.0 mi East 10.4 mph 18.4 mph N/A   Scattered Clouds
3:53 PM 82.9 °F 88.0 °F 72.0 °F 69% 30.00 in 10.0 mi East 12.7 mph 19.6 mph N/A   Partly Cloudy
4:53 PM 81.0 °F 86.2 °F 73.9 °F 79% 30.02 in 9.0 mi NE 9.2 mph 17.3 mph 0.00 in Rain Light Rain
5:03 PM 78.8 °F - 73.4 °F 83% 30.02 in 6.0 mi ENE 6.9 mph - 0.01 in Rain Light Rain
5:53 PM 77.0 °F - 73.0 °F 88% 30.03 in 10.0 mi ENE 4.6 mph - 0.01 in   Clear
6:53 PM 77.0 °F - 73.0 °F 88% 30.05 in 10.0 mi ENE 3.5 mph - N/A   Partly Cloudy
7:53 PM 75.9 °F - 73.0 °F 91% 30.06 in 10.0 mi East 5.8 mph - N/A   Clear
8:53 PM 77.0 °F - 73.0 °F 88% 30.07 in 10.0 mi East 4.6 mph - N/A   Clear
9:53 PM 77.0 °F - 73.0 °F 88% 30.06 in 10.0 mi East 8.1 mph - N/A   Clear
10:53 PM 77.0 °F - 73.0 °F 88% 30.06 in 10.0 mi East 8.1 mph - N/A   Clear